カタログに戻る

DELTA 1 DEB

運用中PO
NORAD 21677·DEBRIS·🇺🇸 United States

打ち上げ Jun 12, 1975 から Vandenberg Space Force Base

Loading…

次のパス (今後24時間)

TLE

最新Source: Space-Track

元期: Sep 14, 2026, 07:15 UTC

1 21677U 75052JD  26257.30266633  .00000019  00000-0  17642-3 0  9996
2 21677  99.9302  16.9426 0477581 349.9152  34.6987 12.71925889639344

AllMySatでDELTA 1 DEBをリアルタイム追跡

Download on the App Store